Location: Holyhead Bay
(53.3667°N, 4.6667°W)
Time: 19:54:35
(UTC+00:00)

Cosmos 1862 - Pass Details

Date: 24 November 2020
Orbit: 537 x 556 km, 82.5° (Epoch: 17 January)

Event Time Altitude Azimuth Distance (km) Brightness Sun altitude
Rises 17:16:32 0° 349° (N) 2,753 6.8 -9.5°
Reaches altitude 10° 17:18:43 10° 351° (N) 1,850 5.9 -9.8°
Maximum altitude 17:22:48 81° 79° (E) 568 3.3 -10.4°
Drops below altitude 10° 17:26:50 10° 167° (SSE) 1,824 6.1 -11.0°
Sets 17:28:58 0° 168° (SSE) 2,709 7.0 -11.3°
